Location: The Saddle
(36.8333°N, 80.3417°W)
Time: 10:55:31
(UTC-04:00)

Vanguard 2 Rocket - Pass Details

Date: 07 February 2023
Orbit: 555 x 3316 km, 32.9° (Epoch: 25 March)

Event Time Altitude Azimuth Distance (km) Brightness Sun altitude
Rises 12:11:33 0° 268° (W) 3,261 9.7 37.6°
Reaches altitude 10° 12:14:21 10° 262° (W) 2,099 8.9 37.7°
Maximum altitude 12:18:39 45° 190° (S) 781 8.7 37.8°
Drops below altitude 10° 12:22:24 10° 116° (ESE) 1,828 8.9 37.8°
Sets 12:24:42 0° 109° (ESE) 2,782 9.7 37.9°
